Location: Clover
(42.5131°N, 114.6874°W)
Time: 13:47:51
(UTC+00:00)

Explorer 7 - Pass Details

Date: 14 December 2025
Orbit: 433 x 550 km, 50.2° (Epoch: 13 January)

Event Time Altitude Azimuth Distance (km) Brightness Sun altitude
Rises 00:51:26 0° 239° (WSW) 2,480 12.4 -8.2°
Reaches altitude 10° 00:53:36 10° 239° (WSW) 1,590 10.8 -8.6°
Maximum altitude 00:57:11 87° 329° (NNW) 451 6.4 -9.2°
Enters shadow 01:00:09 14° 58° (ENE) 1,343 8.1 -9.7°
